www.pogodaiklimat.ru

АРХИВ ПОГОДЫ в Хило

Время (UTC), дата Ветер
(напр.,м/с)
 
Видим.   Явления Облачность Т
(С)
Тd
(С)
f
(%)
Тe
(С)
Тes
(С)
Комфортность

P
(гПа)

Po
(гПа)
Тmin
(С)
Tmax
(С)
R
(мм)
SD
(см)
00:53 27.09 ЮВ  5
{9} 
16 км    10/10 м
[средняя] 
+30.0  +23.0  66  +40  +40  очень
душно 
1009.8  1008.4  +27.2  +32.8     
01:53 27.09 ЮВ  6
{11} 
16 км    10/10 м
[средняя] 
+30.6  +23.3  65  +41  +41  опасность
перегрева 
1010.1  1008.7  +27.2  +32.8     
02:53 27.09 ЮВ  4
{8} 
16 км    10/10 м
[средняя] 
+28.0  +23.0  74  +37  +37  очень
душно 
1010.9  1009.7  +27.2  +32.8     
03:53 27.09 ЮЗ  16 км    10/10 м
[средняя] 
+28.0  +23.0  74  +37  +37  очень
душно 
1012.0  1010.8  +27.2  +32.8     
04:53 27.09 Ю  16 км    10/10 м
[средняя] 
+27.2  +23.3  79  +37  +37  очень
душно 
1012.7  1011.4  +27.2  +32.8     
05:53 27.09 штиль  16 км    10/10 м
[средняя] 
+27.0  +24.0  84  +37  +37  очень
душно 
1013.5  1012.1  +25.0  +27.2     
06:34 27.09 Ю  16 км    10/10 м
[средняя] 
+27.0  +24.0  84  +37  +37  очень
душно 
1013.7  1012.4  +25.0  +27.2     
07:53 27.09 Ю  16 км    2/0 м
[средняя] 
+26.1  +23.9  88  +36  +36  очень
душно 
1013.2  1011.8  +25.0  +27.2     
08:53 27.09 Ю  16 км    ясно  +26.1  +23.9  88  +36  +36  очень
душно 
1012.8  1011.8  +25.0  +27.2     
09:53 27.09 штиль  16 км    ясно  +25.0  +23.3  90  +33  +33  очень
душно 
1012.5  1011.1  +25.0  +27.2     
10:53 27.09 ЮЗ  16 км    ясно  +25.0  +22.8  88  +33  +33  очень
душно 
1012.0  1010.8  +25.0  +27.2     
11:53 27.09 Ю  16 км    ясно  +25.6  +23.3  87  +34  +34  очень
душно 
1011.5  1010.1  +22.8  +25.6     
13:53 27.09 Ю  16 км    ясно  +23.9  +21.7  88  +31  +31  очень
душно 
1012.0  1010.8  +22.8  +25.6     
14:53 27.09 ЮЗ  16 км    ясно  +23.0  +22.0  94  +31  +31  очень
душно 
1012.4  1011.1  +22.8  +25.6     
15:53 27.09 штиль  16 км    10/10 м  +24.0  +22.0  89  +31  +31  очень
душно 
1013.1  1011.8  +22.8  +25.6     
16:53 27.09 Ю  16 км    10/10 м  +25.6  +23.3  87  +34  +34  очень
душно 
1013.7  1012.4  +22.8  +25.6     
17:53 27.09 Ю  16 км    8/8 м  +28.0  +23.0  74  +37  +38  очень
душно 
1014.0  1012.8  +25.6  +32.2     
18:53 27.09 Ю  16 км  слабый дождь  8/8 м  +28.0  +24.0  79  +39  +40  очень
душно 
1013.8  1012.4  +25.6  +32.2     
19:46 27.09 ЮВ  16 км    5/5 м  +31.0  +24.0  66  +43  +46  опасность
перегрева 
1013.4  1012.1  +25.6  +32.2     
20:53 27.09 В  16 км  слабый дождь, дымка  ясно  +32.0  +24.0  63  +44  +48  опасность
перегрева 
1012.9  1011.8  +25.6  +32.2     
21:53 27.09 В  16 км    ясно  +32.0  +23.0  59  +42  +44  опасность
перегрева 
1012.1  1010.8  +25.6  +32.2     
22:53 27.09 В  16 км    10/10 м  +31.1  +23.3  63  +42  +42  опасность
перегрева 
1011.2  1010.1  +25.6  +32.2     
23:53 27.09 В  16 км    10/10 м  +29.0  +23.0  70  +39  +39  очень
душно 
1011.2  1009.7  +26.7  +31.7     
00:53 28.09 В  16 км    10/10 м  +28.0  +24.0  79  +39  +39  очень
душно 
1011.6  1010.4  +26.7  +31.7     
01:53 28.09 ЮВ  16 км  дождь, дымка  10/10 м  +28.3  +23.9  77  +39  +39  очень
душно 
1012.0  1010.8  +26.7  +31.7     
02:53 28.09 ЮВ  16 км  слабый дождь, дымка  10/10 м  +28.0  +23.0  74  +37  +37  очень
душно 
1012.9  1011.8  +26.7  +31.7     
03:28 28.09 штиль  16 км  дождь, дымка  10/10 м  +27.0  +24.0  84  +37  +37  очень
душно 
1014.2  1012.4  +26.7  +31.7     
04:53 28.09 штиль  16 км  дождь  10/10 м  +26.7  +23.9  85  +37  +37  очень
душно 
1015.0  1013.8  +26.7  +31.7     
05:53 28.09 ЮЗ  16 км    10/10 м  +27.0  +24.0  84  +37  +37  очень
душно 
1015.1  1013.8  +24.4  +27.2     
06:53 28.09 ЮЗ  16 км  слабый дождь  10/10 м  +26.0  +24.0  89  +36  +36  очень
душно 
1015.2  1013.8  +24.4  +27.2     
07:53 28.09 ЮЗ  16 км    10/10 м  +26.1  +23.9  88  +36  +36  очень
душно 
1014.7  1013.5  +24.4  +27.2     
08:19 28.09 Ю  14 км  слабый дождь, дымка  10/10 м  +26.1  +23.9  88  +36  +36  очень
душно 
1014.0  1013.1  +24.4  +27.2     
09:53 28.09 ЮЗ  16 км    ясно  +25.6  +23.3  87  +34  +34  очень
душно 
1013.8  1012.4  +24.4  +27.2     
10:53 28.09 ЮЗ  16 км  слабый дождь, дымка  ясно  +24.4  +22.2  88  +32  +32  очень
душно 
1013.1  1011.8  +24.4  +27.2     
11:53 28.09 ЮЗ  16 км  слабый дождь, дымка  8/8 м  +23.9  +21.7  88  +31  +31  очень
душно 
1013.0  1011.8  +22.2  +26.7     
12:12 28.09 З  16 км    5/5 м  +23.3  +21.7  91  +32  +32  очень
душно 
1012.9  1011.8  +22.2  +26.7     
13:53 28.09 ЮЗ  16 км    ясно  +22.8  +20.6  87  +30  +30  очень
душно 
1013.0  1011.8  +22.2  +26.7     
14:53 28.09 ЮЗ  16 км    ясно  +22.0  +20.0  88  +28  +28  душно  1013.3  1012.1  +22.2  +26.7     
15:53 28.09 ЮЗ  16 км    ясно  +23.0  +19.0  78  +29  +29  очень
душно 
1013.8  1012.4  +22.2  +26.7     
16:53 28.09 З  16 км    5/5 м  +26.7  +20.6  69  +33  +33  очень
душно 
1014.5  1013.1  +22.2  +26.7     
17:53 28.09 нст  16 км    5/5 м  +29.0  +23.0  70  +39  +40  очень
душно 
1015.1  1013.8  +26.7  +31.1     
18:53 28.09 В  16 км  слабый дождь  ясно  +30.0  +23.0  66  +40  +43  очень
душно 
1015.3  1014.1  +26.7  +31.1     
19:53 28.09 СВ  16 км    2/2 м  +30.0  +22.8  65  +40  +46  очень
душно 
1014.9  1013.8  +26.7  +31.1     
20:53 28.09 В  16 км    ясно  +31.0  +23.0  62  +41  +46  опасность
перегрева 
1014.3  1013.1  +26.7  +31.1     
21:53 28.09 СВ  16 км    10/10 м
[средняя] 
+31.0  +23.0  62  +41  +41  опасность
перегрева 
1013.7  1012.4  +26.7  +31.1     
22:53 28.09 С  16 км  сильный дождь, дымка  10/10 м
[средняя] 
0.0  0.0  100  -6  -6    1013.2  1011.8  +26.7  +31.1     
23:53 28.09 СВ  16 км    10/10 м
[средняя] 
+29.0  +23.0  70  +39  +39  очень
душно 
1013.0  1011.8  +26.1  +30.6     
00:53 29.09 СВ  16 км    10/10 м
[средняя] 
+29.0  +24.0  74  +40  +40  очень
душно 
1013.4  1012.1  +26.1  +30.6     

 

Местоположение метеостанции Hilo International Airport: широта 19.7222 долгота -155.0558 высота над уровнем моря 11 м.

В архиве по умолчанию представлена погода в Хило за последние 1-2 суток. Обновление информации о фактической погоде в базе происходит ежечасно! Архивные данные за месяц целиком и за предыдущие месяцы Вы можете получить, выбрав интересующий диапазон дат из раскрывающегося списка и нажав кнопку "Ввод!".

Внимание! Архив погоды МЕТАР в базе сайта в настоящее время начинается c 1 января 2013 г. Нет смысла пытаться выбрать более раннюю дату.

Внимание! Время в таблицах - всемирное. Для получения местного времени необходимо прибавить поправку, которая в Хило равна -10 ч.

Ветер - указаны скорость ветра в м/с и направление, откуда дует ветер: С - северный, СВ - северо-восточный, В - восточный, ЮВ - юго-восточный, Ю - южный, ЮЗ - юго-западный, З - западный, СЗ - северо-западный.
Видимость - горизонтальная дальность видимости в метрах или километрах. При видимости от 1 до 10 км при отсутствии осадков обычно наблюдается дымка, при ухудшении видимости до 1 км и менее - туман. В сухую погоду видимость может ухудшаться дымом, пылью или мглою.
Атмосферные явления - указаны явления, наблюдавшиеся в указанный момент времени.
Облачность - указаны через наклонную черту верхняя и нижняя облачность в баллах и высота нижней границы облаков в метрах. Внимание: облачность, как и прочие метеорологические величины в США измеряются автоматическими метеостанциями. Указанные значения в баллах носят условный характер и показывают процент времени, в течение которого, в среднем, лазерный луч высотомера отражался от облаков обратно.
T - Температура воздуха - температура, измеренная на высоте 2 м над землей.
Td - Температура точки росы - температура, при понижении до которой содержащийся в воздухе водяной пар достигнет насыщения.
f - Относительная влажность воздуха - влажноcть воздуха, измеренная на высоте 2 м над землей.
Te - Эффективная температура - температура, которую ощущает одетый по сезону человек в тени. Характеристика душности погоды. При расчете учитывается влияние влажности воздуха и скорости ветра на теплоощущения человека.
Tes - Эффективная температура на солнце - температура, которую ощущает человек, с поправкой на солнечный нагрев. Характеристика знойности погоды. Зависит от высоты солнца над горизонтом, облачности и скорости ветра. Ночью, в пасмурную погоду, а также при ветре 12 м/с и более поправка равна нулю.
P - Атмосферное давление - приведенное к уровню моря атмосферное давление.
Po - Атмосферное давление - измеренное на уровне метеостанции атмосферное давление.
Tmin - Минимальная температура - минимум температуры воздуха на высоте 2 м над землей.
Tmax - Максимальная температура - максимум температуры воздуха на высоте 2 м над землей.
R - Количество осадков - Количество выпавших осадков за 3 или 6 часов, мм.
SD - Снежный покров - Высота снежного покрова, см.